| time (UTC) | temp F | wind direction | speed knots | gust knots | rain 1hr in | rain 24hr in | rain mn in | humidity % | barometer mb |
| 20260508142011 | 53 | 127 | 7.0 | 9.6 | 0.00 | 0.00 | 0.00 | 38 | 1023.5 |
| 20260508141010 | 53 | 163 | 7.8 | 8.7 | 0.00 | 0.00 | 0.00 | 38 | 1023.4 |
| 20260508140011 | 54 | 145 | 7.0 | 9.6 | 0.00 | 0.00 | 0.00 | 37 | 1023.4 |
| 20260508135011 | 53 | 169 | 7.8 | 4.3 | 0.00 | 0.00 | 0.00 | 36 | 1023.4 |
| 20260508134011 | 54 | 108 | 7.8 | 9.6 | 0.00 | 0.00 | 0.00 | 36 | 1023.4 |
| 20260508133011 | 55 | 136 | 6.1 | 7.8 | 0.00 | 0.00 | 0.00 | 35 | 1023.5 |
| 20260508132011 | 56 | 206 | 4.3 | 5.2 | 0.00 | 0.00 | 0.00 | 33 | 1023.7 |
| 20260508131011 | 56 | 295 | 3.5 | 3.5 | 0.00 | 0.00 | 0.00 | 33 | 1023.6 |
| 20260508130011 | 57 | 268 | 7.8 | 5.2 | 0.00 | 0.00 | 0.00 | 32 | 1023.6 |
| 20260508125011 | 56 | 288 | 4.3 | 5.2 | 0.00 | 0.00 | 0.00 | 30 | 1023.5 |
| 20260508124011 | 56 | 275 | 6.1 | 7.0 | 0.00 | 0.00 | 0.00 | 32 | 1023.6 |
| 20260508123011 | 56 | 287 | 6.1 | 7.0 | 0.00 | 0.00 | 0.00 | 31 | 1023.6 |
| 20260508122011 | 56 | 260 | 9.6 | 12.2 | 0.00 | 0.00 | 0.00 | 33 | 1023.6 |
| 20260508121011 | 55 | 253 | 4.3 | 4.3 | 0.00 | 0.00 | 0.00 | 34 | 1023.6 |
| 20260508120011 | 55 | 330 | 6.1 | 6.1 | 0.00 | 0.00 | 0.00 | 34 | 1023.6 |
| 20260508115011 | 55 | 261 | 3.5 | 5.2 | 0.00 | 0.00 | 0.00 | 35 | 1023.7 |
| 20260508114011 | 55 | 271 | 5.2 | 7.0 | 0.00 | 0.00 | 0.00 | 34 | 1023.7 |
| 20260508113011 | 55 | 247 | 5.2 | 5.2 | 0.00 | 0.00 | 0.00 | 35 | 1023.8 |
| 20260508112011 | 55 | 279 | 4.3 | 5.2 | 0.00 | 0.00 | 0.00 | 35 | 1023.8 |
| 20260508111011 | 55 | 196 | 5.2 | 6.1 | 0.00 | 0.00 | 0.00 | 36 | 1023.8 |
| 20260508110011 | 55 | 164 | 3.5 | 4.3 | 0.00 | 0.00 | 0.00 | 36 | 1023.9 |
| 20260508105011 | 55 | 307 | 5.2 | 7.0 | 0.00 | 0.00 | 0.00 | 37 | 1023.8 |
| 20260508104011 | 55 | 217 | 4.3 | 5.2 | 0.00 | 0.00 | 0.00 | 38 | 1023.8 |
| 20260508103011 | 54 | 349 | 5.2 | 9.6 | 0.00 | 0.00 | 0.00 | 38 | 1023.9 |
| 20260508102011 | 54 | 254 | 4.3 | 4.3 | 0.00 | 0.00 | 0.00 | 39 | 1023.9 |
| 20260508101011 | 54 | 348 | 4.3 | 5.2 | 0.00 | 0.00 | 0.00 | 40 | 1023.9 |
| 20260508100011 | 54 | 316 | 5.2 | 7.0 | 0.00 | 0.00 | 0.00 | 40 | 1023.9 |
| 20260508095011 | 55 | 333 | 5.2 | 6.1 | 0.00 | 0.00 | 0.00 | 40 | 1024.0 |
| 20260508094010 | 55 | 85 | 6.1 | 4.3 | 0.00 | 0.00 | 0.00 | 41 | 1023.9 |
| 20260508093011 | 55 | 253 | 4.3 | 4.3 | 0.00 | 0.00 | 0.00 | 42 | 1023.9 |
| 20260508092011 | 56 | 242 | 6.1 | 5.2 | 0.00 | 0.00 | 0.00 | 42 | 1024.0 |
| 20260508091011 | 55 | 202 | 7.0 | 8.7 | 0.00 | 0.00 | 0.00 | 42 | 1024.0 |
| 20260508084602 | 54 | 259 | 3.5 | 5.2 | 0.00 | 0.00 | 0.00 | 42 | 1024.0 |
| 20260508083011 | 53 | 206 | 5.2 | 7.0 | 0.00 | 0.00 | 0.00 | 44 | 1024.0 |
| 20260508082011 | 55 | 279 | 4.3 | 5.2 | 0.00 | 0.00 | 0.00 | 44 | 1023.9 |
| 20260508081011 | 54 | 330 | 4.3 | 6.1 | 0.00 | 0.00 | 0.00 | 46 | 1023.9 |
| 20260508080011 | 54 | 232 | 6.1 | 7.0 | 0.00 | 0.00 | 0.00 | 46 | 1023.9 |
| 20260508075011 | 54 | 254 | 5.2 | 3.5 | 0.00 | 0.00 | 0.00 | 48 | 1023.9 |
| 20260508074011 | 54 | 306 | 7.0 | 7.8 | 0.00 | 0.00 | 0.00 | 49 | 1023.7 |
| 20260508073011 | 54 | 316 | 5.2 | 3.5 | 0.00 | 0.00 | 0.00 | 50 | 1023.7 |
| 20260508072010 | 52 | 260 | 4.3 | 7.0 | 0.00 | 0.00 | 0.00 | 50 | 1023.7 |
| 20260508071011 | 52 | 306 | 4.3 | 4.3 | 0.00 | 0.00 | 0.00 | 50 | 1023.6 |
| 20260508070011 | 52 | 341 | 4.3 | 5.2 | 0.00 | 0.00 | 0.00 | 52 | 1023.5 |
| 20260508065011 | 52 | 329 | 3.5 | 6.1 | 0.00 | 0.00 | 0.00 | 53 | 1023.4 |
| 20260508064011 | 51 | 286 | 2.6 | 3.5 | 0.00 | 0.00 | 0.00 | 56 | 1023.4 |
| 20260508063011 | 51 | 6 | 4.3 | 5.2 | 0.00 | 0.00 | 0.00 | 58 | 1023.2 |
| 20260508062011 | 50 | 323 | 2.6 | 3.5 | 0.00 | 0.00 | 0.00 | 63 | 1023.2 |
| 20260508061010 | 48 | 356 | 2.6 | 2.6 | 0.00 | 0.00 | 0.00 | 66 | 1023.1 |
| 20260508060011 | 46 | 259 | 2.6 | 1.7 | 0.00 | 0.00 | 0.00 | 69 | 1023.1 |
| 20260508055010 | 43 | 267 | 1.7 | 2.6 | 0.00 | 0.00 | 0.00 | 71 | 1023.0 |
| 20260508054010 | 42 | 254 | 2.6 | 1.7 | 0.00 | 0.00 | 0.00 | 75 | 1022.9 |
| 20260508053011 | 39 | 274 | 3.5 | 2.6 | 0.00 | 0.00 | 0.00 | 77 | 1022.7 |
| 20260508052010 | 36 | 299 | 1.7 | 1.7 | 0.00 | 0.00 | 0.00 | 81 | 1022.7 |
| 20260508051010 | 33 | 283 | 1.7 | 2.6 | 0.00 | 0.00 | 0.00 | 83 | 1022.5 |
| 20260508050011 | 31 | 1 | 0.9 | 1.7 | 0.00 | 0.00 | 0.00 | 82 | 1022.4 |
| 20260508045011 | 30 | 334 | 0.9 | 1.7 | 0.00 | 0.00 | 0.00 | 82 | 1022.4 |
| 20260508044011 | 28 | 292 | 0.0 | 0.0 | 0.00 | 0.00 | 0.00 | 81 | 1022.3 |
| 20260508043011 | 27 | 180 | 0.0 | 0.0 | 0.00 | 0.00 | 0.00 | 80 | 1022.3 |
| 20260508042011 | 27 | 180 | 0.0 | 0.0 | 0.00 | 0.00 | 0.00 | 80 | 1022.1 |
| 20260508041011 | 26 | 212 | 0.9 | 0.9 | 0.00 | 0.00 | 0.00 | 79 | 1022.0 |
| 20260508040011 | 25 | 127 | 0.9 | 1.7 | 0.00 | 0.00 | 0.00 | 79 | 1021.9 |
| 20260508035011 | 25 | 58 | 1.7 | 1.7 | 0.00 | 0.00 | 0.00 | 79 | 1021.9 |
| 20260508034011 | 24 | 270 | 0.0 | 0.0 | 0.00 | 0.00 | 0.00 | 79 | 1021.8 |
| 20260508033011 | 24 | 270 | 0.0 | 0.0 | 0.00 | 0.00 | 0.00 | 79 | 1021.8 |
| 20260508032010 | 24 | 270 | 0.0 | 0.0 | 0.00 | 0.00 | 0.00 | 78 | 1021.7 |
| 20260508031010 | 24 | 270 | 0.0 | 0.0 | 0.00 | 0.00 | 0.00 | 78 | 1021.7 |
| 20260508030010 | 23 | 270 | 0.0 | 0.9 | 0.00 | 0.00 | 0.00 | 78 | 1021.6 |
| 20260508025010 | 23 | 270 | 0.0 | 0.9 | 0.00 | 0.00 | 0.00 | 78 | 1021.5 |
| 20260508024011 | 23 | 270 | 0.9 | 1.7 | 0.00 | 0.00 | 0.00 | 78 | 1021.4 |
| 20260508023011 | 23 | 270 | 0.0 | 0.9 | 0.00 | 0.00 | 0.00 | 78 | 1021.3 |
| 20260508022011 | 23 | 270 | 0.9 | 0.9 | 0.00 | 0.00 | 0.00 | 78 | 1021.2 |
| 20260508021011 | 23 | 270 | 0.9 | 0.9 | 0.00 | 0.00 | 0.00 | 77 | 1021.2 |
| 20260508020011 | 23 | 270 | 0.9 | 0.9 | 0.00 | 0.00 | 0.00 | 77 | 1021.1 |
| 20260508015011 | 24 | 270 | 0.9 | 0.9 | 0.00 | 0.00 | 0.00 | 77 | 1021.1 |
| 20260508014011 | 24 | 270 | 0.0 | 0.0 | 0.00 | 0.00 | 0.00 | 77 | 1021.0 |
| 20260508013011 | 24 | 270 | 0.9 | 0.0 | 0.00 | 0.00 | 0.00 | 77 | 1020.9 |
| 20260508012010 | 24 | 270 | 0.9 | 0.0 | 0.00 | 0.00 | 0.00 | 77 | 1020.8 |
| 20260508011010 | 24 | 270 | 0.9 | 0.9 | 0.00 | 0.00 | 0.00 | 76 | 1020.7 |
| 20260508010011 | 24 | 270 | 0.9 | 1.7 | 0.00 | 0.00 | 0.00 | 76 | 1020.6 |
| 20260508005010 | 24 | 270 | 1.7 | 1.7 | 0.00 | 0.00 | 0.00 | 76 | 1020.6 |
| 20260508004011 | 24 | 270 | 0.0 | 0.0 | 0.00 | 0.00 | 0.00 | 76 | 1020.4 |
| 20260508003011 | 24 | 270 | 0.0 | 0.0 | 0.00 | 0.00 | 0.00 | 76 | 1020.3 |
| 20260508002011 | 25 | 270 | 0.0 | 0.0 | 0.00 | 0.00 | 0.00 | 76 | 1020.3 |
| 20260508001011 | 25 | 270 | 0.0 | 0.0 | 0.00 | 0.00 | 0.00 | 76 | 1020.2 |
| 20260508000011 | 25 | 270 | 0.0 | 0.0 | 0.00 | 0.00 | 0.00 | 76 | 1020.0 |
| 20260507235011 | 25 | 270 | 0.0 | 0.0 | 0.00 | 0.00 | 0.00 | 76 | 1020.0 |
| 20260507234010 | 25 | 270 | 0.0 | 0.0 | 0.00 | 0.00 | 0.00 | 75 | 1019.8 |
| 20260507233011 | 25 | 270 | 0.0 | 0.0 | 0.00 | 0.00 | 0.00 | 75 | 1019.8 |
| 20260507232011 | 25 | 270 | 0.0 | 0.0 | 0.00 | 0.00 | 0.00 | 75 | 1019.6 |
| 20260507231011 | 26 | 270 | 0.0 | 0.0 | 0.00 | 0.00 | 0.00 | 75 | 1019.5 |
| 20260507230011 | 26 | 270 | 0.0 | 0.9 | 0.00 | 0.00 | 0.00 | 74 | 1019.4 |
| 20260507225010 | 26 | 270 | 0.9 | 0.0 | 0.00 | 0.00 | 0.00 | 75 | 1019.4 |
| 20260507224011 | 26 | 270 | 0.9 | 0.9 | 0.00 | 0.00 | 0.00 | 74 | 1019.2 |
| 20260507223011 | 26 | 270 | 0.9 | 0.9 | 0.00 | 0.00 | 0.00 | 74 | 1019.1 |
| 20260507222010 | 27 | 270 | 0.0 | 0.0 | 0.00 | 0.00 | 0.00 | 73 | 1019.0 |
| 20260507221011 | 27 | 270 | 0.0 | 0.0 | 0.00 | 0.00 | 0.00 | 73 | 1019.0 |
| 20260507220010 | 27 | 270 | 0.0 | 0.0 | 0.00 | 0.00 | 0.00 | 73 | 1018.9 |
| 20260507215011 | 27 | 270 | 0.0 | 0.0 | 0.00 | 0.00 | 0.00 | 73 | 1018.9 |
| 20260507214011 | 27 | 270 | 0.0 | 0.0 | 0.00 | 0.00 | 0.00 | 73 | 1018.8 |
| 20260507213011 | 28 | 270 | 0.0 | 0.0 | 0.00 | 0.00 | 0.00 | 72 | 1018.6 |
| 20260507212011 | 28 | 270 | 0.9 | 0.0 | 0.00 | 0.00 | 0.00 | 72 | 1018.5 |
| 20260507211011 | 28 | 270 | 0.0 | 0.0 | 0.00 | 0.00 | 0.00 | 71 | 1018.4 |
| 20260507210011 | 28 | 270 | 0.0 | 0.0 | 0.00 | 0.00 | 0.00 | 70 | 1018.3 |
| 20260507205011 | 29 | 270 | 0.0 | 0.0 | 0.00 | 0.00 | 0.00 | 70 | 1018.2 |
| 20260507204011 | 29 | 270 | 0.0 | 0.0 | 0.00 | 0.00 | 0.00 | 70 | 1018.1 |
| 20260507203011 | 29 | 270 | 0.0 | 0.0 | 0.00 | 0.00 | 0.00 | 70 | 1018.0 |
| 20260507202011 | 30 | 270 | 0.9 | 0.9 | 0.00 | 0.00 | 0.00 | 69 | 1018.0 |
| 20260507201011 | 30 | 270 | 0.9 | 1.7 | 0.00 | 0.00 | 0.00 | 69 | 1018.0 |
| 20260507200011 | 30 | 270 | 0.9 | 1.7 | 0.00 | 0.00 | 0.00 | 68 | 1017.8 |
| 20260507195011 | 31 | 270 | 0.9 | 0.9 | 0.00 | 0.00 | 0.00 | 68 | 1017.7 |
| 20260507194010 | 32 | 270 | 0.9 | 1.7 | 0.00 | 0.00 | 0.00 | 67 | 1017.6 |
| 20260507193011 | 33 | 270 | 0.0 | 0.0 | 0.00 | 0.00 | 0.00 | 65 | 1017.4 |
| 20260507192011 | 33 | 270 | 0.9 | 0.0 | 0.00 | 0.00 | 0.00 | 65 | 1017.2 |
| 20260507191010 | 34 | 270 | 0.0 | 0.9 | 0.00 | 0.00 | 0.00 | 64 | 1017.1 |
| 20260507190011 | 35 | 270 | 0.9 | 1.7 | 0.00 | 0.00 | 0.00 | 63 | 1017.0 |
| 20260507185011 | 36 | 225 | 0.9 | 1.7 | 0.00 | 0.00 | 0.00 | 61 | 1016.8 |
| 20260507184011 | 37 | 270 | 0.0 | 0.9 | 0.00 | 0.00 | 0.00 | 61 | 1016.7 |
| 20260507183011 | 38 | 270 | 0.0 | 0.9 | 0.00 | 0.00 | 0.00 | 60 | 1016.6 |
| 20260507182011 | 39 | 270 | 0.0 | 0.0 | 0.00 | 0.00 | 0.00 | 59 | 1016.5 |
| 20260507181011 | 39 | 275 | 1.7 | 0.9 | 0.00 | 0.00 | 0.00 | 58 | 1016.5 |
| 20260507180011 | 40 | 238 | 1.7 | 1.7 | 0.00 | 0.00 | 0.00 | 57 | 1016.3 |
| 20260507175011 | 42 | 292 | 0.9 | 0.9 | 0.00 | 0.00 | 0.00 | 56 | 1016.3 |
| 20260507174011 | 43 | 292 | 1.7 | 1.7 | 0.00 | 0.00 | 0.00 | 56 | 1016.2 |
| 20260507173011 | 44 | 272 | 2.6 | 1.7 | 0.00 | 0.00 | 0.00 | 55 | 1016.1 |
| 20260507172011 | 44 | 261 | 4.3 | 2.6 | 0.00 | 0.00 | 0.00 | 55 | 1016.0 |
| 20260507171011 | 45 | 246 | 3.5 | 4.3 | 0.00 | 0.00 | 0.00 | 55 | 1016.0 |
| 20260507170010 | 46 | 298 | 3.5 | 4.3 | 0.00 | 0.00 | 0.00 | 55 | 1015.9 |
| 20260507165011 | 47 | 261 | 2.6 | 3.5 | 0.00 | 0.00 | 0.00 | 54 | 1015.7 |
| 20260507164012 | 48 | 266 | 3.5 | 3.5 | 0.00 | 0.00 | 0.00 | 54 | 1015.8 |
| 20260507163011 | 45 | 275 | 5.2 | 6.1 | 0.00 | 0.00 | 0.00 | 57 | 1015.7 |
| 20260507162010 | 44 | 271 | 2.6 | 3.5 | 0.00 | 0.00 | 0.00 | 57 | 1015.7 |
| 20260507161010 | 44 | 292 | 1.7 | 2.6 | 0.00 | 0.00 | 0.00 | 56 | 1015.7 |
| 20260507160010 | 44 | 293 | 1.7 | 1.7 | 0.00 | 0.00 | 0.00 | 56 | 1015.6 |
| 20260507155011 | 45 | 300 | 6.1 | 3.5 | 0.00 | 0.00 | 0.00 | 55 | 1015.5 |
| 20260507154011 | 45 | 305 | 2.6 | 3.5 | 0.00 | 0.00 | 0.00 | 55 | 1015.5 |
| 20260507153011 | 46 | 308 | 4.3 | 6.1 | 0.00 | 0.00 | 0.00 | 54 | 1015.4 |
| 20260507152011 | 47 | 336 | 5.2 | 7.0 | 0.00 | 0.00 | 0.00 | 55 | 1015.4 |
| 20260507151011 | 46 | 313 | 4.3 | 3.5 | 0.00 | 0.00 | 0.00 | 56 | 1015.2 |
| 20260507150011 | 46 | 341 | 4.3 | 5.2 | 0.00 | 0.00 | 0.00 | 56 | 1015.1 |
| 20260507145011 | 46 | 284 | 3.5 | 4.3 | 0.00 | 0.00 | 0.00 | 57 | 1015.1 |
| 20260507144011 | 45 | 263 | 4.3 | 5.2 | 0.00 | 0.00 | 0.00 | 58 | 1015.2 |
| 20260507143011 | 45 | 233 | 3.5 | 4.3 | 0.00 | 0.00 | 0.00 | 59 | 1015.1 |